DW3458 Weather Reports


Display with metric or nautical units.
time (UTC)temp
F
wind
direction
speed
MPH
gust
MPH
rain 1hr
in
rain 24hr
in
rain mn
in
humidity
%
barometer
mb
20211208034600 27 119 8.0 11.0 0.00 0.00 0.00 85 1016.3
20211208034105 27 125 8.0 12.0 0.00 0.00 0.00 84 1016.5
20211208033558 27 136 9.0 12.0 0.00 0.00 0.00 84 1016.5
20211208033119 27 156 9.0 13.0 0.00 0.00 0.00 84 1018.1
20211208033106 27 141 9.0 13.0 0.00 0.00 0.00 84 1016.5
20211208032600 27 141 10.0 14.0 0.00 0.00 0.00 84 1016.5
20211208032114 28 159 9.0 14.0 0.00 0.00 0.00 83 1016.6
20211208031554 28 159 9.0 13.0 0.00 0.00 0.00 83 1016.7
20211208031047 28 144 10.0 15.0 0.00 0.00 0.00 82 1016.7
20211208030541 28 140 11.0 16.0 0.00 0.00 0.00 82 1016.8
20211208030309 28 126 11.0 16.0 0.00 0.00 0.00 81 1017.0
20211208030128 28 136 10.0 15.0 0.00 0.00 0.00 81 1017.0
20211208025035 28 167 10.0 14.0 0.00 0.00 0.00 81 1016.9
20211208024806 28 140 9.0 13.0 0.00 0.00 0.00 80 1016.9
20211208024538 28 140 9.0 13.0 0.00 0.00 0.00 80 1016.9
20211208024040 28 133 9.0 12.0 0.00 0.00 0.00 79 1016.9
20211208023533 28 130 9.0 12.0 0.00 0.00 0.00 79 1016.9
20211208023054 28 113 8.0 12.0 0.00 0.00 0.00 78 1018.4
20211208023033 28 113 9.0 12.0 0.00 0.00 0.00 78 1016.9
20211208022531 28 125 8.0 13.0 0.00 0.00 0.00 78 1017.1
20211208022032 28 102 8.0 13.0 0.00 0.00 0.00 77 1017.1
20211208021531 28 120 8.0 13.0 0.00 0.00 0.00 77 1017.3
20211208021033 28 107 9.0 13.0 0.00 0.00 0.00 77 1017.3
20211208020529 28 116 10.0 13.0 0.00 0.00 0.00 76 1017.3
20211208020213 27 113 10.0 13.0 0.00 0.00 0.00 76 1018.8
20211208020031 28 127 9.0 13.0 0.00 0.00 0.00 76 1017.3
20211208015529 28 108 8.0 12.0 0.00 0.00 0.00 75 1017.4
20211208015029 28 127 8.0 12.0 0.00 0.00 0.00 75 1017.4
20211208014526 28 114 9.0 14.0 0.00 0.00 0.00 75 1017.4
20211208014026 28 115 9.0 14.0 0.00 0.00 0.00 74 1017.5
20211208013521 28 123 9.0 14.0 0.00 0.00 0.00 74 1017.6
20211208013150 27 116 9.0 14.0 0.00 0.00 0.00 73 1019.0
20211208013015 28 115 10.0 14.0 0.00 0.00 0.00 73 1017.4
20211208012510 28 119 9.0 13.0 0.00 0.00 0.00 73 1017.6
20211208012004 28 120 9.0 13.0 0.00 0.00 0.00 73 1017.6
20211208011504 28 97 9.0 12.0 0.00 0.00 0.00 73 1017.6
20211208011004 28 105 9.0 13.0 0.00 0.00 0.00 72 1017.6
20211208010502 28 115 11.0 14.0 0.00 0.00 0.00 72 1017.6
20211208010044 27 110 11.0 14.0 0.00 0.00 0.00 71 1019.1
20211208010002 28 107 11.0 15.0 0.00 0.00 0.00 76 1017.5
20211208005503 28 121 11.0 18.0 0.00 0.00 0.00 71 1017.6
20211208005005 27 108 10.0 18.0 0.00 0.00 0.00 71 1017.4
20211208004502 27 101 10.0 15.0 0.00 0.00 0.00 70 1017.5
20211208004002 27 114 11.0 15.0 0.00 0.00 0.00 70 1017.7
20211208003502 27 115 11.0 15.0 0.00 0.00 0.00 69 1017.5
20211208003047 27 103 11.0 15.0 0.00 0.00 0.00 69 1018.9
20211208003002 27 106 11.0 15.0 0.00 0.00 0.00 69 1017.3
20211208002501 28 107 10.0 14.0 0.00 0.00 0.00 69 1017.6
20211208002002 28 106 10.0 14.0 0.00 0.00 0.00 68 1017.6
20211208001506 28 109 10.0 14.0 0.00 0.00 0.00 67 1017.8
20211208001001 28 92 10.0 13.0 0.00 0.00 0.00 68 1017.9
20211208000502 28 109 10.0 13.0 0.00 0.00 0.00 67 1018.0
20211208000057 27 138 9.0 14.0 0.00 0.00 0.00 66 1019.9
20211208000007 28 121 10.0 14.0 0.00 0.00 0.00 66 1018.3
20211207235503 28 111 11.0 14.0 0.00 0.00 0.00 66 1018.3
20211207235001 28 131 10.0 14.0 0.00 0.00 0.00 65 1018.4
20211207234501 28 132 9.0 14.0 0.00 0.00 0.00 65 1018.7
20211207234001 28 123 10.0 14.0 0.00 0.00 0.00 65 1018.8
20211207233736 28 141 10.0 14.0 0.00 0.00 0.00 65 1018.8
20211207233143 27 111 10.0 14.0 0.00 0.00 0.00 65 1020.2
20211207233002 28 128 10.0 14.0 0.00 0.00 0.00 65 1018.6
20211207232458 28 113 10.0 14.0 0.00 0.00 0.00 64 1018.7
20211207231958 28 103 9.0 12.0 0.00 0.00 0.00 64 1018.9
20211207231458 28 103 8.0 12.0 0.00 0.00 0.00 64 1018.9
20211207231000 28 112 8.0 12.0 0.00 0.00 0.00 63 1019.1
20211207230459 28 115 8.0 12.0 0.00 0.00 0.00 63 1019.1
20211207230103 27 109 8.0 11.0 0.00 0.00 0.00 63 1020.6
20211207225959 28 92 8.0 11.0 0.00 0.00 0.00 63 1019.0
20211207225453 28 101 8.0 9.0 0.00 0.00 0.00 63 1019.4
20211207224949 28 119 8.0 9.0 0.00 0.00 0.00 63 1019.3
20211207224441 27 100 7.0 9.0 0.00 0.00 0.00 63 1019.6
20211207223936 27 103 7.0 11.0 0.00 0.00 0.00 63 1019.7
20211207223437 28 90 6.0 11.0 0.00 0.00 0.00 62 1019.5
20211207223039 27 97 6.0 8.0 0.00 0.00 0.00 61 1021.3
20211207222935 28 87 6.0 8.0 0.00 0.00 0.00 61 1019.7
20211207222437 28 107 7.0 9.0 0.00 0.00 0.00 60 1019.9
20211207221933 28 115 7.0 9.0 0.00 0.00 0.00 61 1019.8
20211207221435 28 126 7.0 11.0 0.00 0.00 0.00 59 1019.9
20211207220930 28 105 7.0 11.0 0.00 0.00 0.00 59 1019.9
20211207220430 28 100 7.0 9.0 0.00 0.00 0.00 58 1019.9
20211207220048 27 118 6.0 9.0 0.00 0.00 0.00 59 1021.5
20211207215933 28 125 7.0 9.0 0.00 0.00 0.00 58 1019.8
20211207215430 28 117 6.0 8.0 0.00 0.00 0.00 59 1019.9
20211207214930 28 107 6.0 8.0 0.00 0.00 0.00 58 1019.8
20211207214432 28 104 7.0 11.0 0.00 0.00 0.00 57 1020.0
20211207213929 28 105 7.0 11.0 0.00 0.00 0.00 56 1020.0
20211207213430 28 138 7.0 11.0 0.00 0.00 0.00 56 1020.0
20211207213035 27 114 7.0 11.0 0.00 0.00 0.00 56 1021.7
20211207212929 28 128 7.0 11.0 0.00 0.00 0.00 57 1020.0
20211207212429 28 103 7.0 11.0 0.00 0.00 0.00 56 1020.1
20211207211934 28 164 7.0 9.0 0.00 0.00 0.00 56 1020.2
20211207211428 28 136 7.0 11.0 0.00 0.00 0.00 57 1020.4
20211207210929 28 131 7.0 11.0 0.00 0.00 0.00 56 1020.3
20211207210430 28 144 8.0 11.0 0.00 0.00 0.00 56 1020.3
20211207210022 27 127 8.0 12.0 0.00 0.00 0.00 55 1021.9
20211207205931 28 128 8.0 12.0 0.00 0.00 0.00 56 1020.3
20211207205429 28 130 8.0 12.0 0.00 0.00 0.00 57 1020.4
20211207204930 28 138 7.0 12.0 0.00 0.00 0.00 56 1020.4
20211207204434 28 130 8.0 12.0 0.00 0.00 0.00 57 1020.4
20211207203928 27 132 8.0 12.0 0.00 0.00 0.00 56 1020.1
20211207203427 27 114 8.0 12.0 0.00 0.00 0.00 56 1020.2
20211207203014 27 127 8.0 12.0 0.00 0.00 0.00 56 1022.0
20211207202928 27 111 8.0 12.0 0.00 0.00 0.00 57 1020.3
20211207202425 27 135 8.0 13.0 0.00 0.00 0.00 56 1020.4
20211207201927 27 101 7.0 13.0 0.00 0.00 0.00 57 1020.4
20211207201427 27 153 8.0 12.0 0.00 0.00 0.00 57 1020.7
20211207200924 27 120 8.0 12.0 0.00 0.00 0.00 57 1020.7
20211207200427 27 140 8.0 12.0 0.00 0.00 0.00 58 1020.8
20211207200021 26 140 8.0 11.0 0.00 0.00 0.00 57 1022.4
20211207195922 27 131 8.0 11.0 0.00 0.00 0.00 57 1020.7
20211207195424 27 144 8.0 13.0 0.00 0.00 0.00 57 1020.9
20211207194925 27 165 9.0 13.0 0.00 0.00 0.00 58 1021.0
20211207194421 27 160 8.0 12.0 0.00 0.00 0.00 58 1021.0
20211207193920 27 144 9.0 14.0 0.00 0.00 0.00 59 1021.1
20211207193421 27 106 10.0 14.0 0.00 0.00 0.00 58 1021.0
20211207193010 26 149 9.0 14.0 0.00 0.00 0.00 58 1022.7
20211207192919 26 119 10.0 14.0 0.00 0.00 0.00 58 1021.1
20211207192418 26 139 9.0 14.0 0.00 0.00 0.00 57 1021.2
20211207191920 26 155 9.0 13.0 0.00 0.00 0.00 59 1021.3
20211207191420 26 133 11.0 15.0 0.00 0.00 0.00 58 1021.6
20211207190919 26 116 11.0 15.0 0.00 0.00 0.00 58 1021.5
20211207190422 26 128 11.0 15.0 0.00 0.00 0.00 57 1021.5
20211207190009 25 98 11.0 15.0 0.00 0.00 0.00 57 1023.5
20211207185918 26 128 10.0 15.0 0.00 0.00 0.00 58 1021.7
20211207185418 26 118 10.0 14.0 0.00 0.00 0.00 57 1021.6
20211207184919 25 117 10.0 15.0 0.00 0.00 0.00 56 1021.9
20211207184419 25 100 10.0 15.0 0.00 0.00 0.00 55 1021.7
20211207183920 25 131 10.0 13.0 0.00 0.00 0.00 55 1022.0
20211207183412 25 130 10.0 15.0 0.00 0.00 0.00 53 1022.0
20211207183034 24 109 11.0 15.0 0.00 0.00 0.00 52 1023.9
20211207182914 25 125 10.0 15.0 0.00 0.00 0.00 52 1022.2
20211207182414 24 102 11.0 14.0 0.00 0.00 0.00 51 1022.4
20211207181911 24 121 11.0 14.0 0.00 0.00 0.00 53 1022.2
20211207181409 24 121 11.0 15.0 0.00 0.00 0.00 54 1022.1
20211207180905 24 110 11.0 15.0 0.00 0.00 0.00 56 1022.1
20211207180406 24 110 11.0 16.0 0.00 0.00 0.00 56 1022.4
20211207180006 24 115 8.0 16.0 0.00 0.00 0.00 56 1024.1
20211207175907 24 110 11.0 16.0 0.00 0.00 0.00 56 1022.4
20211207175407 24 113 11.0 15.0 0.00 0.00 0.00 56 1022.4
20211207174907 24 103 11.0 14.0 0.00 0.00 0.00 57 1022.6
20211207174405 24 96 10.0 14.0 0.00 0.00 0.00 58 1022.8
20211207173906 24 90 9.0 14.0 0.00 0.00 0.00 58 1022.9
20211207173401 24 95 9.0 13.0 0.00 0.00 0.00 58 1023.2
20211207173008 23 88 8.0 14.0 0.00 0.00 0.00 59 1025.1
20211207172903 24 102 10.0 14.0 0.00 0.00 0.00 59 1023.4
20211207172402 23 107 12.0 15.0 0.00 0.00 0.00 59 1023.3
20211207171900 23 89 12.0 15.0 0.00 0.00 0.00 58 1023.3
20211207171405 23 104 11.0 15.0 0.00 0.00 0.00 58 1023.3
20211207170901 23 113 11.0 14.0 0.00 0.00 0.00 60 1023.5
20211207170403 23 98 11.0 14.0 0.00 0.00 0.00 60 1023.6
20211207170032 23 113 11.0 14.0 0.00 0.00 0.00 59 1025.5
20211207165902 23 101 11.0 14.0 0.00 0.00 0.00 60 1023.7
20211207165400 23 104 11.0 14.0 0.00 0.00 0.00 58 1023.9
20211207164901 23 103 11.0 14.0 0.00 0.00 0.00 58 1023.9
20211207164403 23 110 10.0 14.0 0.00 0.00 0.00 61 1024.1
20211207163901 23 146 10.0 14.0 0.00 0.00 0.00 62 1024.2
20211207163404 23 100 10.0 14.0 0.00 0.00 0.00 61 1024.3
20211207163010 22 110 10.0 14.0 0.00 0.00 0.00 61 1026.3
20211207162903 23 107 10.0 13.0 0.00 0.00 0.00 61 1024.5
20211207162402 22 112 9.0 13.0 0.00 0.00 0.00 61 1024.7
20211207161902 22 134 9.0 13.0 0.00 0.00 0.00 61 1024.8
20211207161401 22 141 9.0 13.0 0.00 0.00 0.00 60 1024.9
20211207160902 22 118 9.0 13.0 0.00 0.00 0.00 60 1024.9
20211207160405 22 115 8.0 12.0 0.00 0.00 0.00 60 1025.0
20211207160005 22 119 8.0 12.0 0.00 0.00 0.00 61 1027.0
20211207155902 22 132 8.0 12.0 0.00 0.00 0.00 61 1025.2
20211207155401 22 120 8.0 12.0 0.00 0.00 0.00 59 1025.2
20211207154901 22 117 8.0 11.0 0.00 0.00 0.00 61 1025.2
20211207154401 22 116 8.0 11.0 0.00 0.00 0.00 62 1025.1
20211207153901 21 106 8.0 11.0 0.00 0.00 0.00 62 1024.9
20211207153400 21 127 8.0 12.0 0.00 0.00 0.00 62 1024.9
20211207153004 21 117 7.0 12.0 0.00 0.00 0.00 62 1026.7
20211207152904 21 106 8.0 12.0 0.00 0.00 0.00 62 1024.8
20211207152404 21 121 6.0 11.0 0.00 0.00 0.00 63 1024.9
20211207151902 21 96 7.0 11.0 0.00 0.00 0.00 63 1024.7
20211207151401 21 109 7.0 11.0 0.00 0.00 0.00 62 1024.6
20211207150904 21 94 8.0 11.0 0.00 0.00 0.00 63 1024.6
20211207150404 21 95 8.0 11.0 0.00 0.00 0.00 63 1024.5
20211207150006 20 101 7.0 11.0 0.00 0.00 0.00 62 1026.4
20211207145902 21 103 8.0 11.0 0.00 0.00 0.00 62 1024.4
20211207145402 21 107 8.0 11.0 0.00 0.00 0.00 62 1024.5
20211207144902 20 121 7.0 11.0 0.00 0.00 0.00 61 1024.4
20211207144402 20 92 7.0 11.0 0.00 0.00 0.00 62 1024.4
20211207143901 20 115 7.0 9.0 0.00 0.00 0.00 61 1024.4
20211207143402 20 98 7.0 9.0 0.00 0.00 0.00 61 1024.2
20211207143007 20 87 6.0 8.0 0.00 0.00 0.00 61 1026.3
20211207142901 20 96 6.0 8.0 0.00 0.00 0.00 61 1024.4
20211207142402 20 94 6.0 9.0 0.00 0.00 0.00 60 1024.4
20211207141901 20 96 6.0 9.0 0.00 0.00 0.00 61 1024.4
20211207141404 20 107 5.0 9.0 0.00 0.00 0.00 61 1024.3
20211207140901 20 94 5.0 7.0 0.00 0.00 0.00 61 1024.3
20211207140403 20 84 5.0 8.0 0.00 0.00 0.00 61 1024.2
20211207140026 20 87 6.0 8.0 0.00 0.00 0.00 61 1026.0
20211207135902 20 98 3.0 8.0 0.00 0.00 0.00 61 1024.0
20211207135406 20 88 2.0 8.0 0.00 0.00 0.00 61 1024.0
20211207134902 20 79 2.0 5.0 0.00 0.00 0.00 61 1023.8
20211207134402 20 85 2.0 5.0 0.00 0.00 0.00 60 1024.0
20211207133902 20 85 2.0 7.0 0.00 0.00 0.00 61 1024.1
20211207133403 20 86 1.0 7.0 0.00 0.00 0.00 61 1024.1
20211207133007 19 92 0.0 2.0 0.00 0.00 0.00 61 1026.0
20211207132902 20 92 0.0 2.0 0.00 0.00 0.00 61 1024.1
20211207132403 20 92 1.0 6.0 0.00 0.00 0.00 60 1024.2
20211207131902 20 92 1.0 6.0 0.00 0.00 0.00 61 1024.3
20211207131402 20 80 0.0 2.0 0.00 0.00 0.00 61 1024.2
20211207130903 20 80 0.0 2.0 0.00 0.00 0.00 61 1024.3
20211207130407 20 80 0.0 1.0 0.00 0.00 0.00 62 1024.1
20211207130011 19 80 0.0 2.0 0.00 0.00 0.00 62 1026.1
20211207125901 20 80 0.0 2.0 0.00 0.00 0.00 62 1024.1
20211207125404 20 80 1.0 3.0 0.00 0.00 0.00 62 1024.2
20211207124904 20 80 1.0 3.0 0.00 0.00 0.00 60 1024.2
20211207124404 20 80 1.0 5.0 0.00 0.00 0.00 60 1024.2
20211207123902 20 80 3.0 6.0 0.00 0.00 0.00 60 1023.9
20211207123402 20 80 4.0 6.0 0.00 0.00 0.00 60 1024.0
20211207123023 19 81 3.0 7.0 0.00 0.00 0.00 60 1026.0
20211207122900 20 84 3.0 7.0 0.00 0.00 0.00 60 1024.0
20211207122404 20 80 2.0 7.0 0.00 0.00 0.00 59 1024.1
20211207121900 20 92 1.0 5.0 0.00 0.00 0.00 58 1024.0
20211207121401 20 92 1.0 5.0 0.00 0.00 0.00 58 1024.0
20211207120901 20 92 0.0 2.0 0.00 0.00 0.00 57 1024.2
20211207120401 20 92 0.0 2.0 0.00 0.00 0.00 58 1024.3
20211207120006 19 92 0.0 5.0 0.00 0.00 0.00 58 1026.5
20211207115907 20 92 2.0 5.0 0.00 0.00 0.00 58 1024.4
20211207115405 20 92 2.0 5.0 0.00 0.00 0.00 59 1024.6
20211207114902 20 92 1.0 4.0 0.00 0.00 0.00 57 1024.5
20211207114403 20 92 1.0 4.0 0.00 0.00 0.00 57 1024.7
20211207113903 20 92 0.0 1.0 0.00 0.00 0.00 58 1024.6
20211207113404 19 92 0.0 1.0 0.00 0.00 0.00 58 1024.9
20211207113007 19 92 0.0 5.0 0.00 0.00 0.00 56 1026.6
20211207112900 19 92 1.0 6.0 0.00 0.00 0.00 56 1024.6
20211207112402 19 92 2.0 6.0 0.00 0.00 0.00 56 1024.5
20211207111902 19 92 1.0 6.0 0.00 0.00 0.00 56 1024.5
20211207111403 19 92 1.0 5.0 0.00 0.00 0.00 56 1024.6
20211207110903 19 92 1.0 5.0 0.00 0.00 0.00 55 1024.3
20211207110404 19 92 1.0 4.0 0.00 0.00 0.00 55 1024.2
20211207110008 19 92 0.0 4.0 0.00 0.00 0.00 55 1026.2
20211207105903 19 92 1.0 4.0 0.00 0.00 0.00 55 1024.1
20211207105403 19 92 1.0 4.0 0.00 0.00 0.00 54 1024.4
20211207104902 19 92 1.0 6.0 0.00 0.00 0.00 55 1024.3
20211207104403 19 92 1.0 6.0 0.00 0.00 0.00 56 1024.3
20211207103902 19 92 0.0 5.0 0.00 0.00 0.00 57 1024.5
20211207103403 19 92 0.0 1.0 0.00 0.00 0.00 56 1024.6
20211207103037 19 92 0.0 2.0 0.00 0.00 0.00 56 1026.9
20211207102903 19 92 0.0 2.0 0.00 0.00 0.00 56 1024.7
20211207102402 19 92 0.0 2.0 0.00 0.00 0.00 57 1024.7
20211207101902 19 92 1.0 2.0 0.00 0.00 0.00 57 1024.5
20211207101405 19 92 1.0 4.0 0.00 0.00 0.00 57 1024.5
20211207100901 19 92 1.0 4.0 0.00 0.00 0.00 57 1024.7
20211207100402 19 298 0.0 2.0 0.00 0.00 0.00 56 1024.8
20211207100009 19 298 0.0 1.0 0.00 0.00 0.00 57 1026.8
20211207095902 19 298 0.0 1.0 0.00 0.00 0.00 57 1024.6
20211207095402 19 298 0.0 2.0 0.00 0.00 0.00 57 1024.7
20211207094902 19 298 0.0 2.0 0.00 0.00 0.00 56 1024.8
20211207094402 19 298 0.0 1.0 0.00 0.00 0.00 57 1025.0
20211207093903 19 298 0.0 1.0 0.00 0.00 0.00 56 1025.0
20211207093400 19 298 0.0 1.0 0.00 0.00 0.00 57 1025.1
20211207093010 19 298 0.0 2.0 0.00 0.00 0.00 57 1027.3
20211207092904 19 298 0.0 2.0 0.00 0.00 0.00 57 1025.2
20211207092403 19 298 0.0 2.0 0.00 0.00 0.00 59 1025.2
20211207091903 19 298 0.0 1.0 0.00 0.00 0.00 62 1025.2
20211207091402 19 298 0.0 1.0 0.00 0.00 0.00 62 1025.4
20211207090901 19 298 0.0 1.0 0.00 0.00 0.00 62 1025.6
20211207090402 19 298 0.0 2.0 0.00 0.00 0.00 63 1025.6
20211207090007 19 298 0.0 2.0 0.00 0.00 0.00 62 1027.5
20211207085900 19 298 0.0 2.0 0.00 0.00 0.00 62 1025.4
20211207085402 19 298 0.0 1.0 0.00 0.00 0.00 62 1025.8
20211207084902 19 298 0.0 1.0 0.00 0.00 0.00 62 1025.9
20211207084404 19 298 0.0 1.0 0.00 0.00 0.00 63 1025.9
20211207083850 19 298 0.0 2.0 0.00 0.00 0.00 62 1025.9
20211207083340 19 298 0.0 2.0 0.00 0.00 0.00 63 1025.9
20211207082831 19 298 0.0 2.0 0.00 0.00 0.00 63 1025.8
20211207082329 19 298 0.0 2.0 0.00 0.00 0.00 63 1025.8
20211207081831 19 298 0.0 2.0 0.00 0.00 0.00 63 1025.7
20211207081331 19 298 0.0 2.0 0.00 0.00 0.00 62 1025.6
20211207080831 19 298 0.0 1.0 0.00 0.00 0.00 63 1025.6
20211207080330 19 298 0.0 1.0 0.00 0.00 0.00 63 1025.6
20211207075830 19 298 0.0 1.0 0.00 0.00 0.00 63 1025.8
20211207075329 19 298 0.0 1.0 0.00 0.00 0.00 63 1025.6
20211207074808 19 298 0.0 1.0 0.00 0.00 0.00 63 1025.6
20211207074306 19 298 0.0 2.0 0.00 0.00 0.00 64 1025.2
20211207073804 19 298 0.0 2.0 0.00 0.00 0.00 63 1025.1
20211207073304 19 298 0.0 2.0 0.00 0.00 0.00 64 1024.9
20211207072803 18 298 0.0 2.0 0.00 0.00 0.00 65 1025.1
20211207072305 18 298 0.0 1.0 0.00 0.00 0.00 66 1025.4
20211207071803 18 298 0.0 1.0 0.00 0.00 0.00 67 1025.5
20211207071302 18 298 0.0 1.0 0.00 0.00 0.00 66 1025.5
20211207070804 18 298 0.0 1.0 0.00 0.00 0.00 66 1025.5
20211207070302 18 298 0.0 1.0 0.00 0.00 0.00 68 1025.6
20211207065802 18 298 0.0 1.0 0.00 0.00 0.00 68 1025.2
20211207065306 18 298 0.0 0.0 0.00 0.00 0.00 68 1025.1
20211207064804 18 298 0.0 0.0 0.00 0.00 0.00 68 1025.2
20211207064302 18 298 0.0 0.0 0.00 0.00 0.00 68 1025.4
20211207063803 19 298 0.0 1.0 0.00 0.00 0.00 68 1025.3
20211207063302 19 298 0.0 2.0 0.00 0.00 0.00 68 1025.2
20211207062803 19 298 0.0 2.0 0.00 0.00 0.00 66 1025.2
20211207062305 19 299 0.0 1.0 0.00 0.00 0.00 65 1025.2
20211207061803 19 299 0.0 0.0 0.00 0.00 0.00 65 1025.3
20211207061302 19 299 0.0 1.0 0.00 0.00 0.00 65 1025.2
20211207060803 19 299 0.0 1.0 0.00 0.00 0.00 65 1025.3
20211207060305 19 299 0.0 2.0 0.00 0.00 0.00 65 1025.5
20211207055803 19 299 0.0 2.0 0.00 0.00 0.00 64 1025.5
20211207055305 19 299 0.0 1.0 0.00 0.00 0.00 64 1025.7
20211207054802 20 299 0.0 2.0 0.00 0.00 0.00 64 1025.6
20211207054302 20 299 1.0 2.0 0.00 0.00 0.00 64 1025.5
20211207053801 20 306 0.0 3.0 0.00 0.00 0.00 63 1025.6
20211207053302 20 306 0.0 3.0 0.00 0.00 0.00 64 1025.5
20211207052801 20 303 1.0 2.0 0.00 0.00 0.00 63 1025.6
20211207052305 20 303 1.0 2.0 0.00 0.00 0.00 62 1025.7
20211207051805 20 320 0.0 1.0 0.00 0.00 0.00 61 1025.6
20211207051303 20 320 0.0 1.0 0.00 0.00 0.00 61 1025.2
20211207050803 20 320 0.0 1.0 0.00 0.00 0.00 61 1025.3
20211207050302 21 320 0.0 2.0 0.00 0.00 0.00 61 1025.1
20211207045804 21 320 1.0 3.0 0.00 0.00 0.00 61 1024.9
20211207045301 21 320 0.0 3.0 0.00 0.00 0.00 60 1025.0
20211207044802 21 321 0.0 1.0 0.00 0.00 0.00 61 1024.9
20211207044302 21 321 1.0 2.0 0.00 0.00 0.00 60 1025.0
20211207043800 21 321 1.0 3.0 0.00 0.00 0.00 59 1024.8
20211207043302 21 321 1.0 3.0 0.00 0.00 0.00 59 1024.9
20211207042806 21 328 1.0 3.0 0.00 0.00 0.00 58 1024.8
20211207042305 21 333 1.0 3.0 0.00 0.00 0.00 59 1024.9
20211207041802 21 333 1.0 3.0 0.00 0.00 0.00 59 1024.9
20211207041303 22 334 1.0 3.0 0.00 0.00 0.00 59 1025.0
20211207040803 22 305 1.0 3.0 0.00 0.00 0.00 59 1025.0
20211207040304 22 305 1.0 3.0 0.00 0.00 0.00 58 1024.9
20211207035803 22 333 1.0 3.0 0.00 0.00 0.00 59 1024.9
20211207035259 22 0 1.0 3.0 0.00 0.00 0.00 59 1025.0
20211207034752 22 327 2.0 3.0 0.00 0.00 0.00 59 1025.0